KCVG Airport Diagram

We have created a template for each of the higher traffic airports in the vZID airspace. They include KCMH, KCRW, KCVG, KDAY, KIND, KLEX and KSDF. You wil find usefull information including the airport diagram, weather, and specific airport procedures.

KCVG Weather

[Source: ADDS]
METAR
KCVG 230352Z 00000KT 10SM BKN060 BKN075 OVC090 24/20 A3000 RMK AO2 SLP149 T02390200 =
KCVG 222339Z 2300/2406 33004KT P6SM VCSH SCT025 OVC100 FM230400 03003KT P6SM VCSH SCT030 OVC070 TEMPO 2304/2308 BKN030 FM230800 04006KT P6SM VCSH OVC020 TEMPO 2310/2314 OVC035 FM231400 06008KT P6SM BKN040 FM231700 04010KT P6SM SCT040
TAF
KCVG 222339Z 2300/2406 33004KT P6SM VCSH SCT025 OVC100 FM230400 03003KT P6SM VCSH SCT030 OVC070 TEMPO 2304/2308 BKN030 FM230800 04006KT P6SM VCSH OVC020 TEMPO 2310/2314 OVC035 FM231400 06008KT P6SM BKN040 FM231700 04010KT P6SM SCT040 =

KCVG Operations

Calm Wind Configuration is Landing runways 36C and 36R, departing runway 27.

You can expect  this configuration up to and including a 10 knot tailwind.

The Center runway is the old 18R/36L in the default scenery. Additionally, runway 9/27 was lengthened to 12,000 feet when the west runway (18R/36L) was added.

Where parallel taxiways exist, inner taxiway is used by inbound traffic and outer taxiway is used by outbound traffic.

FDX & UPS use the ramp area at Terminal 1.

New Scenery is available at FlightSim.com.

On initial contact, arriving aircraft should notify the the controller which scenery they have.

 

JSN Epic template designed by JoomlaShine.com